Location: Unspecified
(20.0000°S, 0.0000°E)
Time: 19:53:10
(UTC+00:00)

BEESAT - Pass Details

Date: 27 August 2019
Orbit: 700 x 709 km, 98.6° (Epoch: 18 October)

Event Time Altitude Azimuth Distance (km) Brightness Sun altitude
Rises 04:31:00 0° 156° (SSE) 3,103 ? -24.6°
Reaches altitude 10° 04:33:25 10° 147° (SSE) 2,179 ? -24.1°
Maximum altitude 04:37:49 37° 80° (E) 1,089 ? -23.0°
Drops below altitude 10° 04:42:11 10° 13° (NNE) 2,158 ? -22.0°
Sets 04:44:33 0° 4° (N) 3,070 ? -21.5°
